{"data":{"norad_id":55457,"intl_designator":"2023-015J","name":"STARLINK-5682","alt_names":[],"object_type":"PAYLOAD","status":"ACTIVE","operator":null,"country":"US","launch_date":"2023-02-02","launch_site_code":"AFETR","launch_vehicle":null,"mission":null,"orbit_class":"UNKNOWN","rcs_meters":null,"size_class":null,"mass_kg":null,"dimensions":null,"purposes":["comms"],"wikipedia_slug":null,"has_3d_model":false,"image_url":null,"decayed_at":null,"tle_current":{"epoch":"2026-09-20T11:26:14.285472Z","epoch_age_seconds":102451,"freshness":"FRESH","line1":"1 55457U 23015J   26263.47655423  .00000302  00000+0  20479-4 0  9992","line2":"2 55457  43.0008 308.5513 0001002 287.4675  72.6067 15.27574395200514","mean_motion":15.27574395,"eccentricity":0.0001002,"inclination_deg":43.0008,"raan_deg":308.5513,"arg_perigee_deg":287.4675,"mean_anomaly_deg":72.6067,"bstar":2.0479e-5,"rev_number":20051,"period_min":94.267094598689,"perigee_km":482.37838694884,"apogee_km":483.75337200588,"semimajor_km":6861.2028794774,"source":"CELESTRAK","updated_at":"2026-09-21T09:00:33.227452Z"}}}